COSMOS 2499 DEB, 56576

Orbit data source: Space-Track

COSMOS 2499 DEB, 56576 is space debris in LEO originally from a launch on Fri, 23 May 2014 UTC launched from the Plesetsk Missile And Space Complex (PKMTR). Debris objects in space refer to the collection of defunct objects orbiting the Earth. Examples of debris include non-operational satellites, rocket bodies, and fragments generated from explosions, collisions, or faulty payload assembly.

Loading next visibility...
Identifier
56576, 2014-028BK
Orbit
LEO
Country
Flag of CISCIS
Related business
Manufacturer
TsNIIKhM
Mission
Spacecraft
Bus & Motor
Unknown
Mass
Unknown
Launch date (UTC)
2014-05-23 (12 years ago)
Launch vehicle
Unknown
Launch site
Plesetsk Missile And Space Complex (PKMTR)
Object type
Payload
Rocket body
Debris
Shape & HBR
Unknown shape, 0.1 m
Radar Cross Section
Small (<0.1 m²)

Expand to show TLE details & history
Last TLE update: 9 hours ago

TLE from 9 hours ago
0 COSMOS 2499 DEB
1 56576U 14028BK  25349.82004786  .00002227  00000-0  75360-2 0  9998
2 56576  82.4063  11.9815 0251427  72.0124 290.8211 12.88482227136182
Epoch: 2025-12-15T19:40Z
TLE epoch observation values (Epoch: 2025-12-15T19:40:52.135Z)
Latitude
0.00004°
Longitude
-7.94885°
Altitude
1,245.919 km
Speed
7.262 km/s
True Right ascension
00h 47m 55s
True Declination
0° 00' 00"
Sunlit
Object was in daylight at epoch
Visualization orbit readout
Latitude
Unknown
Longitude
Unknown
Altitude
Unknown
Speed
Unknown
Apparent Right ascension
Unknown
Apparent Declination
Unknown
Sunlit
N/A
Visualization observer readout
Local Sidereal Time
03:22:57
Azimuth
Unknown
Elevation
Unknown
Doppler factor
Unknown
Orbital elements
Apogee altitude
1,498.012 km
Perigee altitude
1,111.67 km
Semi-major axis
7,682.978 km
Eccentricity
0.02514
Inclination
82.4063°
RAAN
11.9815°
Arg. of periapsis
72.0124°
True anomaly
288.09873°
Mean anomaly
290.8211°
Eccentric anomaly
289.46285°
Mean motion
3.22291 °/min
Orbital period
111.7 mins
BSTAR
0.007536
Loading maneuver chart data...
Computing Atmospheric mass density...
Loading historical data...
Loading historical data...
Loading historical data...
Loading historical data...
Loading historical data...
Loading historical data...
Loading historical data...

Documentation

Showing up to 5 results
|